Regional Weather Roundup
Issued by NWS

Home | Current Version | Previous Version | Graphics & Text | Print | Product List | Glossary On
Versions: 1 2 3 4 5 6 7 8 9 10 11 12 13 14 15 16 17 18 19 20 21 22 23 24 25 26 27 28 29 30 31 32 33 34 35 36 37 38 39 40 41 42 43 44 45 46 47 48 49 50
000
ASUS43 KLMK 251010
RWRKY
KENTUCKY REGIONAL WEATHER ROUNDUP
NATIONAL WEATHER SERVICE LOUISVILLE KY
500 AM EST SUN FEB 25 2018

NOTE "FAIR" INDICATES FEW OR NO CLOUDS BELOW 12,000 FEET
WITH NO SIGNIFICANT WEATHER AND/OR OBSTRUCTIONS TO VISIBILITY.

KYZ001>023-026-027-061>063-070>075-251100-
WESTERN AND SOUTH CENTRAL KENTUCKY

CITY           SKY/WX    TMP DP  RH WIND       PRES   REMARKS
PADUCAH        FAIR      46  37  71 W9        29.98R
HENDERSON      CLOUDY    47  38  71 W21       29.96R
OWENSBORO      FAIR      48  41  76 NW20G25   29.94R
HOPKINSVILLE   FAIR      55  46  74 W17G28    29.93R
BOWLING GREEN  FAIR      57  54  89 SW15      29.89R
GLASGOW        CLOUDY   N/A N/A N/A SW9       29.91R
$$

KYZ024-025-028>034-038-045-046-053-251100-
NORTH CENTRAL KENTUCKY

CITY           SKY/WX    TMP DP  RH WIND       PRES   REMARKS
LOUISVILLE/SDF CLOUDY    56  50  80 W24G40    29.84R
LOUISVILLE/LOU CLOUDY    59  53  80 NW18G32   29.82R
FORT KNOX      CLOUDY    54  48  82 W16G28    29.89R
$$

KYZ035>037-039>044-047>052-055>060-089>105-251100-
NORTHEAST KENTUCKY

CITY           SKY/WX    TMP DP  RH WIND       PRES   REMARKS
LEXINGTON      CLOUDY    58  53  84 SW15G23   29.82F
COVINGTON      MOCLDY    59  52  77 W17G28    29.74R
FRANKFORT      CLOUDY    59  54  83 SW12      29.80R
$$

KYZ054-064>069-076>088-106>120-251100-
SOUTHEAST KENTUCKY

CITY           SKY/WX    TMP DP  RH WIND       PRES   REMARKS
JACKSON        LGT RAIN  56  54  93 SW8       29.92R
LONDON         LGT RAIN  55  53  93 S8        29.94R
SOMERSET       RAIN      54  54 100 S6        29.93S
MIDDLESBORO    RAIN      56  56 100 CALM      29.97R
MONTICELLO     RAIN      55  53  93 SW13      29.95R
$$




USA.gov is the U.S. government's official web portal to all federal, state and local government web resources and services.